Voltar ao catálogo

STARLINK-32818

AtivoComunicaçõesVLEO
NORAD 63036·PAYLOAD·🇺🇸 United States

Lançado Feb 18, 2025 de Cape Canaveral Space Force Station

Loading…

Próximas Passagens (próximas 24 horas)

TLE

AtualizadoSource: CelesTrak SupGP

Época: Sep 15, 2026, 03:29 UTC

1 63036C 25034H   26258.14562500 -.00011995  00000+0 -38575-3 0  2583
2 63036  53.1577  97.9187 0001246  88.2152   7.2506 15.31705590    15

Acompanhe STARLINK-32818 em tempo real com AllMySat

Download on the App Store